Location: Rotheul
(50.2849°N, 11.2349°E)
Time: 06:43:27
(UTC+02:00)

ISS - Pass Details

Date: 12 July 2018
Orbit: 402 x 408 km, 51.6° (Epoch: 18 July)

Event Time Altitude Azimuth Distance (km) Brightness Sun altitude
Exits shadow 04:21:12 - 267° (W) 2,093 -0.6 -7.5°
Reaches altitude 10° 04:22:43 10° 270° (W) 1,469 -1.4 -7.3°
Maximum altitude 04:26:00 69° 354° (N) 439 -3.5 -7.0°
Drops below altitude 10° 04:29:18 10° 79° (E) 1,473 -0.1 -6.6°
Sets 04:31:24 0° 82° (E) 2,335 1.0 -6.4°
